EW1296 Weather Reports


time (UTC)temp
C
wind
direction
speed
KPH
gust
KPH
rain 1hr
cm
rain 24hr
cm
rain mn
cm
humidity
%
barometer
mb
20260509190016 16 113 3.2 8.0 0.08 0.10 0.10 83 1010.9
20260509185516 16 113 1.6 4.8 0.08 0.10 0.10 83 1011.1
20260509185016 16 0.0 3.2 0.08 0.10 0.10 82 1011.0
20260509184516 16 338 1.6 4.8 0.08 0.10 0.10 82 1011.1
20260509184016 16 248 1.6 6.4 0.05 0.08 0.08 81 1012.0
20260509183537 16 270 3.2 8.0 0.03 0.05 0.05 81 1012.0
20260509183037 16 248 3.2 16.1 0.03 0.05 0.05 80 1011.6
20260509182516 16 135 1.6 8.0 0.03 0.05 0.05 80 1011.2
20260509182037 16 135 3.2 12.9 0.03 0.05 0.05 80 1011.5
20260509181516 16 0.0 3.2 0.00 0.03 0.03 81 1011.5
20260509181018 16 0.0 1.6 0.00 0.03 0.03 80 1011.1
20260509180517 16 0.0 0.0 0.00 0.03 0.03 81 1010.8
20260509180016 16 0.0 3.2 0.03 0.03 0.03 81 1010.6
20260509175516 16 0.0 4.8 0.03 0.03 0.03 81 1010.6
20260509175016 16 113 1.6 8.0 0.03 0.03 0.03 81 1010.9
20260509174516 16 113 4.8 17.7 0.03 0.03 0.03 81 1010.8
20260509174038 16 113 1.6 4.8 0.03 0.03 0.03 82 1011.0
20260509173537 16 135 1.6 6.4 0.03 0.03 0.03 82 1011.0
20260509173016 16 135 1.6 6.4 0.03 0.03 0.03 81 1011.0
20260509172516 16 135 1.6 6.4 0.03 0.03 0.03 81 1010.9
20260509172017 16 113 4.8 9.7 0.03 0.03 0.03 80 1010.9
20260509171537 16 113 3.2 8.0 0.03 0.03 0.03 79 1010.9
20260509171017 16 113 6.4 12.9 0.03 0.03 0.03 77 1011.1
20260509170516 16 135 4.8 12.9 0.03 0.03 0.03 75 1011.2
20260509170016 17 113 4.8 12.9 0.00 0.00 0.00 73 1011.1
20260509165517 17 113 8.0 17.7 0.00 0.00 0.00 71 1011.2
20260509165016 18 113 4.8 16.1 0.00 0.00 0.00 69 1011.2
20260509164516 18 113 3.2 12.9 0.00 0.00 0.00 67 1011.0
20260509164016 18 135 3.2 6.4 0.00 0.00 0.00 66 1011.1
20260509163516 18 135 1.6 4.8 0.00 0.00 0.00 64 1011.2
20260509163017 18 113 1.6 4.8 0.00 0.00 0.00 64 1011.2
20260509162516 18 113 3.2 9.7 0.00 0.00 0.00 63 1011.3
20260509162036 18 113 3.2 6.4 0.00 0.00 0.00 64 1011.4
20260509161516 18 113 4.8 9.7 0.00 0.00 0.00 64 1011.5
20260509161016 18 113 4.8 11.3 0.00 0.00 0.00 64 1011.6
20260509160537 17 113 3.2 12.9 0.00 0.00 0.00 64 1011.7
20260509160016 17 113 4.8 14.5 0.00 0.00 0.00 64 1011.8
20260509155517 17 113 3.2 9.7 0.00 0.00 0.00 64 1011.9
20260509155015 17 113 1.6 6.4 0.00 0.00 0.00 64 1012.0
20260509154516 17 0.0 4.8 0.00 0.00 0.00 65 1012.0
20260509154016 17 135 1.6 6.4 0.00 0.00 0.00 64 1012.1
20260509153516 17 113 1.6 4.8 0.00 0.00 0.00 63 1012.2
20260509153016 18 113 3.2 6.4 0.00 0.00 0.00 63 1012.3
20260509152516 18 113 1.6 9.7 0.00 0.00 0.00 63 1012.2
20260509152016 18 135 1.6 6.4 0.00 0.00 0.00 63 1012.2
20260509151516 17 248 1.6 4.8 0.00 0.00 0.00 64 1012.2
20260509151017 17 225 3.2 8.0 0.00 0.00 0.00 63 1012.2
20260509150516 18 225 4.8 11.3 0.00 0.00 0.00 63 1012.2
20260509150016 18 225 3.2 8.0 0.00 0.00 0.00 63 1012.3
20260509145516 18 225 1.6 8.0 0.00 0.00 0.00 63 1012.3
20260509145016 17 135 1.6 4.8 0.00 0.00 0.00 64 1012.3
20260509144537 17 225 1.6 4.8 0.00 0.00 0.00 64 1012.2
20260509144016 17 225 3.2 8.0 0.00 0.00 0.00 64 1012.3
20260509143516 17 135 3.2 11.3 0.00 0.00 0.00 64 1012.2
20260509143015 17 225 3.2 12.9 0.00 0.00 0.00 65 1012.3
20260509142516 17 225 3.2 11.3 0.00 0.00 0.00 64 1012.3
20260509142036 17 225 3.2 8.0 0.00 0.00 0.00 65 1012.2
20260509141515 16 225 1.6 6.4 0.00 0.00 0.00 66 1012.3
20260509141016 16 225 3.2 8.0 0.00 0.00 0.00 66 1012.3
20260509140516 16 0.0 6.4 0.00 0.00 0.00 67 1012.3
20260509140016 16 203 1.6 6.4 0.00 0.00 0.00 68 1012.3
20260509135517 16 203 1.6 4.8 0.00 0.00 0.00 68 1012.4
20260509135016 16 135 1.6 4.8 0.00 0.00 0.00 69 1012.3
20260509134516 16 225 1.6 8.0 0.00 0.00 0.00 68 1012.2
20260509134016 16 158 1.6 8.0 0.00 0.00 0.00 68 1012.4
20260509133516 16 225 1.6 6.4 0.00 0.00 0.00 68 1012.4
20260509133016 16 248 3.2 9.7 0.00 0.00 0.00 68 1012.3
20260509132515 16 158 1.6 4.8 0.00 0.00 0.00 68 1012.5
20260509132015 16 158 1.6 8.0 0.00 0.00 0.00 68 1012.5
20260509131515 16 158 1.6 6.4 0.00 0.00 0.00 69 1012.3
20260509131016 15 248 1.6 6.4 0.00 0.00 0.00 70 1012.5
20260509130517 15 113 1.6 8.0 0.00 0.00 0.00 70 1012.4
20260509130016 15 225 1.6 9.7 0.00 0.00 0.00 70 1012.6
20260509125515 15 113 1.6 4.8 0.00 0.00 0.00 70 1012.6
20260509125016 15 135 1.6 6.4 0.00 0.00 0.00 71 1012.8
20260509124515 15 225 1.6 6.4 0.00 0.00 0.00 71 1012.9
20260509124037 15 0.0 6.4 0.00 0.00 0.00 71 1012.9
20260509123515 15 0.0 3.2 0.00 0.00 0.00 71 1012.8
20260509123015 15 158 1.6 4.8 0.00 0.00 0.00 71 1012.9
20260509122517 15 0.0 4.8 0.00 0.00 0.00 72 1012.8
20260509122017 15 113 1.6 6.4 0.00 0.00 0.00 72 1012.8
20260509121516 14 135 1.6 4.8 0.00 0.00 0.00 72 1012.8
20260509121015 14 0.0 4.8 0.00 0.00 0.00 72 1012.8
20260509120537 14 135 1.6 4.8 0.00 0.00 0.00 72 1012.6
20260509120015 14 135 1.6 4.8 0.00 0.00 0.00 72 1012.8
20260509115515 14 0.0 3.2 0.00 0.00 0.00 72 1012.9
20260509115015 13 0.0 3.2 0.00 0.00 0.00 72 1012.9
20260509114515 13 0.0 3.2 0.00 0.00 0.00 72 1012.9
20260509114015 13 0.0 4.8 0.00 0.00 0.00 72 1012.9
20260509113516 13 0.0 8.0 0.00 0.00 0.00 72 1012.9
20260509113139 13 0.0 3.2 0.00 0.00 0.00 73 1012.8
20260509112515 13 203 1.6 4.8 0.00 0.00 0.00 73 1012.9
20260509112037 13 203 1.6 12.9 0.00 0.00 0.00 73 1012.8
20260509111536 13 225 1.6 12.9 0.00 0.00 0.00 73 1012.7
20260509111017 13 0.0 8.0 0.00 0.00 0.00 73 1012.8
20260509110515 13 203 1.6 8.0 0.00 0.00 0.00 73 1012.8
20260509110016 13 203 1.6 8.0 0.00 0.00 0.00 73 1012.8
20260509105515 13 225 3.2 9.7 0.00 0.00 0.00 73 1012.8
20260509105037 13 225 3.2 9.7 0.00 0.00 0.00 73 1012.7
20260509104517 13 225 1.6 8.0 0.00 0.00 0.00 73 1012.6
20260509104035 13 225 1.6 6.4 0.00 0.00 0.00 73 1012.6
20260509103515 13 203 1.6 4.8 0.00 0.00 0.00 72 1012.6
20260509103015 13 203 1.6 12.9 0.00 0.00 0.00 72 1012.6
20260509102518 13 225 1.6 8.0 0.00 0.00 0.00 72 1012.5
20260509102017 13 225 1.6 8.0 0.00 0.00 0.00 72 1012.4
20260509101517 13 158 1.6 6.4 0.00 0.00 0.00 71 1012.5
20260509101017 13 0.0 0.0 0.00 0.00 0.00 71 1012.4
20260509100517 13 0.0 1.6 0.00 0.00 0.00 71 1012.4
20260509100017 13 0.0 1.6 0.00 0.00 0.00 71 1012.3
20260509095537 13 0.0 6.4 0.00 0.00 0.00 71 1012.4
20260509095017 13 0.0 0.0 0.00 0.00 0.00 72 1012.4
20260509094517 13 0.0 6.4 0.00 0.00 0.00 72 1012.4
20260509094017 13 0.0 3.2 0.00 0.00 0.00 73 1012.4
20260509093517 13 113 1.6 3.2 0.00 0.00 0.00 73 1012.3
20260509093019 13 0.0 3.2 0.00 0.00 0.00 73 1012.2
20260509092518 13 0.0 3.2 0.00 0.00 0.00 72 1012.2
20260509092017 13 0.0 0.0 0.00 0.00 0.00 72 1012.2
20260509091538 13 0.0 0.0 0.00 0.00 0.00 72 1012.3
20260509091017 13 0.0 3.2 0.00 0.00 0.00 72 1012.4
20260509090517 13 0.0 3.2 0.00 0.00 0.00 72 1012.4
20260509090015 13 0.0 4.8 0.00 0.00 0.00 71 1012.3
20260509085518 13 113 1.6 4.8 0.00 0.00 0.00 71 1012.3
20260509085017 13 0.0 3.2 0.00 0.00 0.00 70 1012.4
20260509084537 13 135 1.6 4.8 0.00 0.00 0.00 69 1012.4
20260509084017 13 0.0 3.2 0.00 0.00 0.00 69 1012.3
20260509083518 13 0.0 0.0 0.00 0.00 0.00 69 1012.4
20260509083037 13 0.0 0.0 0.00 0.00 0.00 68 1012.4
20260509082517 13 0.0 0.0 0.00 0.00 0.00 68 1012.5
20260509082038 13 0.0 0.0 0.00 0.00 0.00 68 1012.4
20260509081518 13 0.0 0.0 0.00 0.00 0.00 68 1012.5
20260509081037 13 0.0 0.0 0.00 0.00 0.00 68 1012.5
20260509080517 13 0.0 0.0 0.00 0.00 0.00 68 1012.4
20260509080037 13 0.0 0.0 0.00 0.00 0.00 68 1012.3
20260509075518 13 0.0 0.0 0.00 0.00 0.00 68 1012.3
20260509075017 13 0.0 0.0 0.00 0.00 0.00 69 1012.4
20260509074518 13 0.0 0.0 0.00 0.00 0.00 69 1012.4
20260509074017 13 0.0 0.0 0.00 0.00 0.00 69 1012.5
20260509073518 13 0.0 3.2 0.00 0.00 0.00 69 1012.6
20260509073017 13 0.0 1.6 0.00 0.00 0.00 70 1012.6
20260509072518 13 0.0 3.2 0.00 0.00 0.00 70 1012.6
20260509072017 13 0.0 1.6 0.00 0.00 0.00 71 1012.6
20260509071518 13 0.0 3.2 0.00 0.00 0.00 71 1012.5
20260509071018 13 0.0 0.0 0.00 0.00 0.00 71 1012.5
20260509070517 13 0.0 1.6 0.00 0.00 0.00 71 1012.5
20260509070017 13 0.0 3.2 0.00 0.00 0.00 72 1012.6
20260509065538 13 0.0 3.2 0.00 0.00 0.00 72 1012.6
20260509065017 13 135 1.6 4.8 0.00 0.00 0.00 72 1012.5
20260509064517 13 0.0 6.4 0.00 0.00 0.00 72 1012.4
20260509064037 13 135 1.6 4.8 0.00 0.00 0.00 72 1012.6
20260509063518 13 0.0 1.6 0.00 0.00 0.00 71 1012.5
20260509063017 13 0.0 3.2 0.00 0.00 0.00 72 1012.5
20260509062518 14 135 1.6 4.8 0.00 0.00 0.00 72 1012.5
20260509062017 14 135 1.6 3.2 0.00 0.00 0.00 71 1012.7
20260509061517 14 0.0 3.2 0.00 0.00 0.00 71 1012.7
20260509061017 14 0.0 3.2 0.00 0.00 0.00 70 1012.9
20260509060517 14 0.0 3.2 0.00 0.00 0.00 70 1013.0
20260509060038 14 135 1.6 4.8 0.00 0.00 0.00 70 1013.1
20260509055517 14 135 1.6 3.2 0.00 0.00 0.00 70 1013.2
20260509055017 14 0.0 3.2 0.00 0.00 0.00 69 1013.3
20260509054517 14 0.0 3.2 0.00 0.00 0.00 68 1013.2
20260509054017 14 0.0 6.4 0.00 0.00 0.00 68 1013.2
20260509053517 14 135 1.6 6.4 0.00 0.00 0.00 67 1013.3
20260509053037 14 135 3.2 9.7 0.00 0.00 0.00 66 1013.3
20260509052517 14 135 1.6 6.4 0.00 0.00 0.00 66 1013.3
20260509052017 14 113 1.6 4.8 0.00 0.00 0.00 66 1013.2
20260509051516 14 135 1.6 4.8 0.00 0.00 0.00 65 1013.2
20260509051017 14 0.0 3.2 0.00 0.00 0.00 65 1013.2
20260509050517 14 0.0 0.0 0.00 0.00 0.00 65 1013.2
20260509050016 14 0.0 0.0 0.00 0.00 0.00 64 1013.1
20260509045517 13 0.0 0.0 0.00 0.00 0.00 64 1013.0
20260509045037 13 0.0 0.0 0.00 0.00 0.00 64 1012.9
20260509044518 14 0.0 0.0 0.00 0.00 0.00 63 1012.9
20260509044017 14 0.0 3.2 0.00 0.00 0.00 63 1013.0
20260509043537 14 0.0 0.0 0.00 0.00 0.00 63 1012.9
20260509043057 14 0.0 0.0 0.00 0.00 0.00 62 1013.0
20260509042517 14 0.0 0.0 0.00 0.00 0.00 62 1013.0
20260509042016 14 0.0 1.6 0.00 0.00 0.00 62 1013.0
20260509041517 14 0.0 0.0 0.00 0.00 0.00 62 1012.9
20260509041037 14 0.0 1.6 0.00 0.00 0.00 62 1012.9
20260509040517 14 0.0 0.0 0.00 0.00 0.00 62 1013.0
20260509040039 14 0.0 0.0 0.00 0.00 0.00 61 1013.0
20260509035538 14 0.0 0.0 0.00 0.00 0.00 61 1013.0
20260509035017 14 0.0 0.0 0.00 0.00 0.00 61 1013.1
20260509034538 14 0.0 0.0 0.00 0.00 0.00 61 1013.1
20260509034017 14 0.0 0.0 0.00 0.00 0.00 61 1013.1
20260509033517 14 0.0 1.6 0.00 0.00 0.00 61 1013.1
20260509033017 14 0.0 0.0 0.00 0.00 0.00 60 1013.1
20260509032518 14 0.0 0.0 0.00 0.00 0.00 60 1013.1
20260509032037 14 0.0 0.0 0.00 0.00 0.00 61 1013.2
20260509031517 14 0.0 0.0 0.00 0.00 0.00 61 1013.2
20260509031017 14 0.0 1.6 0.00 0.00 0.00 61 1013.2
20260509030517 14 0.0 0.0 0.00 0.00 0.00 61 1013.2
20260509030017 15 0.0 0.0 0.00 0.00 0.00 61 1013.2
20260509025517 15 0.0 1.6 0.00 0.00 0.00 61 1013.3
20260509025018 15 0.0 0.0 0.00 0.00 0.00 61 1013.4
20260509024518 15 0.0 1.6 0.00 0.00 0.00 61 1013.3
20260509024017 15 0.0 1.6 0.00 0.00 0.00 62 1013.4
20260509023517 15 0.0 4.8 0.00 0.00 0.00 62 1013.4
20260509023017 15 0.0 1.6 0.00 0.00 0.00 62 1013.4
20260509022517 15 0.0 4.8 0.00 0.00 0.00 61 1013.4
20260509022017 15 135 1.6 6.4 0.00 0.00 0.00 61 1013.3
20260509021515 15 135 1.6 4.8 0.00 0.00 0.00 60 1013.2
20260509021017 15 0.0 4.8 0.00 0.00 0.00 61 1013.3
20260509020517 15 0.0 3.2 0.00 0.00 0.00 61 1013.3
20260509020017 15 113 1.6 6.4 0.00 0.00 0.00 60 1013.2
20260509015517 15 135 1.6 8.0 0.00 0.00 0.00 60 1013.2
20260509015037 15 135 1.6 8.0 0.00 0.00 0.00 60 1013.0
20260509014517 15 0.0 3.2 0.00 0.00 0.00 60 1013.0
20260509014017 15 113 1.6 6.4 0.00 0.00 0.00 61 1013.0
20260509013517 15 135 1.6 9.7 0.00 0.00 0.00 60 1013.0
20260509013018 15 135 1.6 4.8 0.00 0.00 0.00 60 1012.9
20260509012517 15 135 1.6 6.4 0.00 0.00 0.00 60 1012.9
20260509012017 15 135 1.6 6.4 0.00 0.00 0.00 58 1012.8
20260509011518 15 135 3.2 11.3 0.00 0.00 0.00 57 1012.7
20260509011018 15 135 3.2 8.0 0.00 0.00 0.00 56 1012.6
20260509010538 15 135 4.8 11.3 0.00 0.00 0.00 54 1012.5
20260509010018 16 135 3.2 11.3 0.00 0.00 0.00 54 1012.4
20260509005517 16 135 4.8 16.1 0.00 0.00 0.00 52 1012.2
20260509005017 16 0.0 6.4 0.00 0.00 0.00 50 1012.1
20260509004517 16 90 1.6 4.8 0.00 0.00 0.00 49 1012.1
20260509004018 16 90 1.6 4.8 0.00 0.00 0.00 50 1012.0
20260509003517 16 0.0 4.8 0.00 0.00 0.00 50 1011.9
20260509003017 16 0.0 3.2 0.00 0.00 0.00 50 1011.8
20260509002538 16 0.0 3.2 0.00 0.00 0.00 50 1011.8
20260509002017 16 45 1.6 4.8 0.00 0.00 0.00 50 1011.7
20260509001518 16 45 1.6 4.8 0.00 0.00 0.00 49 1011.7
20260509001017 16 0.0 4.8 0.00 0.00 0.00 49 1011.8
20260509000518 16 45 1.6 4.8 0.00 0.00 0.00 49 1011.9
20260509000037 16 0.0 3.2 0.00 0.00 0.00 49 1011.8
20260508235517 16 0.0 3.2 0.00 0.00 0.00 49 1011.8
20260508235016 16 0.0 3.2 0.00 0.00 0.00 49 1011.8
20260508234517 16 45 1.6 3.2 0.00 0.00 0.00 49 1011.8
20260508234017 16 0.0 3.2 0.00 0.00 0.00 49 1011.8
20260508233600 16 338 1.6 6.4 0.00 0.00 0.00 48 1011.7
20260508233017 16 45 3.2 8.0 0.00 0.00 0.00 48 1011.6
20260508232538 16 45 1.6 6.4 0.00 0.00 0.00 47 1011.5
20260508232017 16 45 1.6 6.4 0.00 0.00 0.00 47 1011.5
20260508231538 16 45 3.2 9.7 0.00 0.00 0.00 47 1011.5
20260508231037 16 45 1.6 8.0 0.00 0.00 0.00 47 1011.4
20260508230517 16 338 3.2 6.4 0.00 0.00 0.00 47 1011.4
20260508230017 16 23 1.6 6.4 0.00 0.00 0.00 46 1011.4
20260508225518 17 0 3.2 8.0 0.00 0.00 0.00 46 1011.4
20260508225017 17 23 3.2 12.9 0.00 0.00 0.00 46 1011.4
20260508224517 17 23 3.2 8.0 0.00 0.00 0.00 46 1011.4
20260508224017 17 45 3.2 9.7 0.00 0.00 0.00 46 1011.4
20260508223517 17 315 3.2 9.7 0.00 0.00 0.00 46 1011.3
20260508223017 17 0 1.6 8.0 0.00 0.00 0.00 45 1011.4
20260508222517 17 338 1.6 6.4 0.00 0.00 0.00 46 1011.4
20260508222017 17 338 4.8 12.9 0.00 0.00 0.00 45 1011.4
20260508221517 17 0 3.2 12.9 0.00 0.00 0.00 44 1011.4
20260508221017 17 338 3.2 9.7 0.00 0.00 0.00 43 1011.4
20260508220517 17 338 3.2 12.9 0.00 0.00 0.00 43 1011.3
20260508220018 17 23 3.2 14.5 0.00 0.00 0.00 43 1011.2
20260508215516 17 315 6.4 14.5 0.00 0.00 0.00 41 1011.2
20260508215017 18 248 6.4 17.7 0.00 0.00 0.00 41 1011.3
20260508214516 18 315 6.4 17.7 0.00 0.00 0.00 40 1011.2
20260508214017 18 315 6.4 16.1 0.00 0.00 0.00 41 1011.3
20260508213518 18 315 6.4 16.1 0.00 0.00 0.00 40 1011.3
20260508213017 18 315 4.8 12.9 0.00 0.00 0.00 40 1011.3
20260508212517 18 315 8.0 17.7 0.00 0.00 0.00 39 1011.4
20260508212017 18 270 8.0 20.9 0.00 0.00 0.00 40 1011.4
20260508211517 17 315 8.0 19.3 0.00 0.00 0.00 40 1011.3
20260508211057 17 270 14.5 24.1 0.00 0.00 0.00 40 1011.6
20260508210518 17 270 9.7 22.5 0.00 0.00 0.00 40 1011.6
20260508210017 17 270 11.3 22.5 0.00 0.00 0.00 39 1011.6
20260508205517 17 248 9.7 22.5 0.00 0.00 0.00 39 1011.6
20260508205017 17 270 11.3 20.9 0.00 0.00 0.00 39 1011.4
20260508204538 17 270 12.9 25.7 0.00 0.00 0.00 39 1011.5
20260508204056 17 270 16.1 30.6 0.00 0.00 0.00 38 1011.5
20260508203517 17 270 12.9 27.4 0.00 0.00 0.00 38 1011.6
20260508203017 17 270 9.7 20.9 0.00 0.00 0.00 38 1011.5
20260508202537 17 270 14.5 25.7 0.00 0.00 0.00 38 1011.5
20260508202017 17 270 14.5 29.0 0.00 0.00 0.00 37 1011.3
20260508201517 17 248 14.5 32.2 0.00 0.00 0.00 37 1011.2
20260508201018 18 248 12.9 24.1 0.00 0.00 0.00 37 1011.3
20260508200518 18 270 14.5 22.5 0.00 0.00 0.00 36 1011.3
20260508200057 18 270 12.9 25.7 0.00 0.00 0.00 36 1011.3
20260508195537 18 248 12.9 22.5 0.00 0.00 0.00 36 1011.2
20260508195036 18 270 11.3 20.9 0.00 0.00 0.00 36 1011.1
20260508194517 18 270 9.7 19.3 0.00 0.00 0.00 36 1011.1
20260508194016 18 270 12.9 24.1 0.00 0.00 0.00 36 1011.1
20260508193516 18 315 9.7 22.5 0.00 0.00 0.00 35 1011.1
20260508193037 18 293 12.9 25.7 0.00 0.00 0.00 35 1011.0
20260508192516 18 270 16.1 24.1 0.00 0.00 0.00 35 1011.3
20260508192016 18 270 12.9 27.4 0.00 0.00 0.00 36 1011.5
20260508191517 18 270 9.7 19.3 0.00 0.00 0.00 36 1011.5
20260508191036 18 248 11.3 32.2 0.00 0.00 0.00 36 1011.6
20260508190516 17 270 11.3 22.5 0.00 0.00 0.00 37 1011.5